• In Hungary
  • List of Countries
  • For 7 days
  • Water Temperature
  • Satellite Maps
  • Weather Map
  • News
  • Weather Widgets
  • user-avatar
    Login

    Hourly Weather Chulativ

    Today, 24 May, Thursday

    Time Temperature Precipitation Wind Pressure Humidity
    00:00 +15°C° 0 mm 1 mps 752 mmHg 79%
    01:00 +14°C° 0 mm 1 mps 752 mmHg 81%
    02:00 +14°C° 0 mm 2 mps 751 mmHg 79%
    03:00 +14°C° 0 mm 2 mps 751 mmHg 80%
    04:00 +14°C° 0 mm 2 mps 751 mmHg 81%
    05:00 +14°C° 0 mm 2 mps 751 mmHg 83%
    06:00 +16°C° 0 mm 2 mps 751 mmHg 78%
    07:00 +18°C° 0 mm 2 mps 751 mmHg 74%
    08:00 +20°C° 0 mm 3 mps 751 mmHg 69%
    09:00 +21°C° 0 mm 3 mps 751 mmHg 64%
    10:00 +24°C° 0 mm 3 mps 751 mmHg 60%
    11:00 +25°C° 0 mm 3 mps 751 mmHg 55%
    12:00 +25°C° 0 mm 3 mps 751 mmHg 54%
    13:00 +26°C° 0 mm 3 mps 750 mmHg 53%
    14:00 +26°C° 0 mm 3 mps 750 mmHg 51%
    15:00 +25°C° 0.1 mm 3 mps 750 mmHg 55%
    16:00 +25°C° 0.1 mm 3 mps 750 mmHg 60%
    17:00 +25°C° 0.1 mm 3 mps 750 mmHg 64%
    18:00 +22°C° 0 mm 3 mps 750 mmHg 70%
    19:00 +20°C° 0 mm 3 mps 750 mmHg 77%
    20:00 +18°C° 0 mm 3 mps 750 mmHg 83%
    21:00 +17°C° 0 mm 3 mps 750 mmHg 85%
    22:00 +16°C° 0 mm 3 mps 750 mmHg 87%
    23:00 +14°C° 0 mm 3 mps 750 mmHg 89%

    Tomorrow, 25 May, Friday

    Time Temperature Precipitation Wind Pressure Humidity
    00:00 +14°C° 0 mm 3 mps 750 mmHg 90%
    01:00 +14°C° 0 mm 3 mps 750 mmHg 91%
    02:00 +13°C° 0 mm 3 mps 751 mmHg 92%
    03:00 +13°C° 0 mm 3 mps 751 mmHg 91%
    04:00 +13°C° 0 mm 3 mps 751 mmHg 91%
    05:00 +13°C° 0 mm 3 mps 751 mmHg 90%
    06:00 +15°C° 0 mm 4 mps 752 mmHg 84%
    07:00 +18°C° 0 mm 4 mps 752 mmHg 78%
    08:00 +20°C° 0 mm 5 mps 752 mmHg 72%
    09:00 +21°C° 0 mm 5 mps 752 mmHg 69%
    10:00 +22°C° 0 mm 6 mps 752 mmHg 65%
    11:00 +23°C° 0 mm 6 mps 752 mmHg 61%
    12:00 +23°C° 0 mm 6 mps 753 mmHg 60%
    13:00 +23°C° 0 mm 6 mps 753 mmHg 58%
    14:00 +24°C° 0 mm 6 mps 753 mmHg 57%
    15:00 +23°C° 0 mm 6 mps 753 mmHg 60%
    16:00 +22°C° 0 mm 6 mps 753 mmHg 64%
    17:00 +22°C° 0 mm 5 mps 753 mmHg 67%
    18:00 +20°C° 0 mm 5 mps 754 mmHg 70%
    19:00 +17°C° 0 mm 5 mps 754 mmHg 72%
    20:00 +15°C° 0 mm 5 mps 755 mmHg 75%
    21:00 +14°C° 0 mm 5 mps 755 mmHg 74%
    22:00 +13°C° 0 mm 5 mps 755 mmHg 74%
    23:00 +12°C° 0 mm 4 mps 756 mmHg 73%

    Day after tomorrow, 26 May, Saturday

    Time Temperature Precipitation Wind Pressure Humidity
    00:00 +11°C° 0 mm 4 mps 756 mmHg 74%
    01:00 +11°C° 0 mm 4 mps 757 mmHg 75%
    02:00 +10°C° 0 mm 4 mps 757 mmHg 75%
    03:00 +10°C° 0 mm 4 mps 757 mmHg 75%
    04:00 +10°C° 0 mm 4 mps 758 mmHg 75%
    05:00 +8°C° 0 mm 4 mps 758 mmHg 75%
    06:00 +10°C° 0 mm 5 mps 758 mmHg 70%
    07:00 +11°C° 0 mm 6 mps 759 mmHg 64%
    08:00 +14°C° 0 mm 7 mps 759 mmHg 59%
    09:00 +15°C° 0 mm 7 mps 759 mmHg 57%
    10:00 +16°C° 0 mm 7 mps 760 mmHg 55%
    11:00 +17°C° 0 mm 7 mps 760 mmHg 53%
    12:00 +17°C° 0 mm 7 mps 760 mmHg 54%
    13:00 +17°C° 0 mm 7 mps 759 mmHg 54%
    14:00 +19°C° 0 mm 6 mps 759 mmHg 54%
    15:00 +17°C° 0 mm 6 mps 759 mmHg 56%
    16:00 +17°C° 0 mm 6 mps 759 mmHg 59%
    17:00 +17°C° 0 mm 5 mps 759 mmHg 62%
    18:00 +15°C° 0 mm 4 mps 759 mmHg 67%
    19:00 +13°C° 0 mm 4 mps 759 mmHg 73%
    20:00 +12°C° 0 mm 3 mps 759 mmHg 78%
    21:00 +11°C° 0 mm 3 mps 760 mmHg 81%
    22:00 +10°C° 0 mm 3 mps 760 mmHg 83%
    23:00 +9°C° 0 mm 3 mps 760 mmHg 85%

    27 May, Sunday

    Time Temperature Precipitation Wind Pressure Humidity
    00:00 +9°C° 0 mm 3 mps 760 mmHg 86%
    01:00 +8°C° 0 mm 3 mps 760 mmHg 88%
    02:00 +7°C° 0 mm 3 mps 760 mmHg 89%
    03:00 +8°C° 0 mm 3 mps 760 mmHg 88%
    04:00 +8°C° 0 mm 3 mps 760 mmHg 87%
    05:00 +8°C° 0 mm 3 mps 760 mmHg 86%
    06:00 +10°C° 0 mm 3 mps 760 mmHg 80%
    07:00 +12°C° 0 mm 3 mps 760 mmHg 73%
    08:00 +14°C° 0 mm 4 mps 760 mmHg 67%
    09:00 +15°C° 0 mm 4 mps 760 mmHg 62%
    10:00 +17°C° 0 mm 4 mps 759 mmHg 58%
    11:00 +18°C° 0 mm 4 mps 759 mmHg 53%
    12:00 +19°C° 0 mm 4 mps 759 mmHg 52%
    13:00 +19°C° 0 mm 3 mps 759 mmHg 52%
    14:00 +20°C° 0 mm 3 mps 758 mmHg 51%
    15:00 +20°C° 0 mm 3 mps 758 mmHg 53%
    16:00 +19°C° 0 mm 3 mps 757 mmHg 56%
    17:00 +19°C° 0 mm 3 mps 757 mmHg 58%
    18:00 +17°C° 0 mm 2 mps 757 mmHg 64%
    19:00 +15°C° 0 mm 2 mps 757 mmHg 70%
    20:00 +13°C° 0 mm 1 mps 757 mmHg 77%
    21:00 +13°C° 0 mm 1 mps 757 mmHg 79%
    22:00 +12°C° 0 mm 1 mps 757 mmHg 81%
    23:00 +11°C° 0 mm 1 mps 757 mmHg 83%

    28 May, Monday

    Time Temperature Precipitation Wind Pressure Humidity
    00:00 +11°C° 0 mm 1 mps 757 mmHg 84%
    01:00 +10°C° 0 mm 1 mps 757 mmHg 84%
    02:00 +10°C° 0 mm 1 mps 757 mmHg 85%
    03:00 +10°C° 0 mm 1 mps 757 mmHg 84%
    04:00 +11°C° 0 mm 1 mps 757 mmHg 84%
    05:00 +11°C° 0 mm 1 mps 757 mmHg 83%
    06:00 +13°C° 0 mm 2 mps 758 mmHg 77%
    07:00 +15°C° 0 mm 2 mps 758 mmHg 71%
    08:00 +17°C° 0 mm 2 mps 758 mmHg 65%
    09:00 +19°C° 0 mm 2 mps 758 mmHg 61%
    10:00 +20°C° 0 mm 3 mps 758 mmHg 57%
    11:00 +22°C° 0 mm 3 mps 758 mmHg 53%
    12:00 +22°C° 0 mm 3 mps 758 mmHg 53%
    13:00 +24°C° 0 mm 3 mps 757 mmHg 53%
    14:00 +25°C° 0 mm 3 mps 757 mmHg 52%
    15:00 +24°C° 0 mm 3 mps 757 mmHg 57%
    16:00 +24°C° 0 mm 3 mps 757 mmHg 62%
    17:00 +24°C° 0 mm 3 mps 757 mmHg 66%
    18:00 +21°C° 0 mm 3 mps 757 mmHg 72%
    19:00 +19°C° 0 mm 3 mps 757 mmHg 78%
    20:00 +17°C° 0 mm 4 mps 758 mmHg 84%
    21:00 +15°C° 0 mm 4 mps 758 mmHg 82%
    22:00 +14°C° 0 mm 4 mps 758 mmHg 81%
    23:00 +13°C° 0 mm 4 mps 759 mmHg 80%

    29 May, Tuesday

    Time Temperature Precipitation Wind Pressure Humidity
    00:00 +12°C° 0 mm 4 mps 759 mmHg 80%
    01:00 +11°C° 0 mm 4 mps 759 mmHg 80%
    02:00 +10°C° 0 mm 4 mps 760 mmHg 80%
    03:00 +10°C° 0 mm 3 mps 760 mmHg 79%
    04:00 +9°C° 0 mm 3 mps 760 mmHg 79%
    05:00 +9°C° 0 mm 3 mps 760 mmHg 79%
    06:00 +11°C° 0 mm 3 mps 761 mmHg 74%
    07:00 +13°C° 0 mm 3 mps 761 mmHg 68%
    08:00 +16°C° 0 mm 3 mps 761 mmHg 63%
    09:00 +17°C° 0 mm 3 mps 761 mmHg 58%
    10:00 +19°C° 0 mm 4 mps 761 mmHg 54%
    11:00 +20°C° 0 mm 4 mps 761 mmHg 49%
    12:00 +20°C° 0 mm 3 mps 760 mmHg 49%
    13:00 +21°C° 0 mm 3 mps 760 mmHg 48%
    14:00 +21°C° 0 mm 3 mps 759 mmHg 48%
    15:00 +21°C° 0 mm 3 mps 759 mmHg 51%
    16:00 +21°C° 0 mm 2 mps 759 mmHg 53%
    17:00 +21°C° 0 mm 2 mps 758 mmHg 56%
    18:00 +19°C° 0 mm 2 mps 758 mmHg 62%
    19:00 +17°C° 0 mm 2 mps 758 mmHg 68%
    20:00 +15°C° 0 mm 1 mps 757 mmHg 74%
    21:00 +14°C° 0 mm 1 mps 757 mmHg 77%
    22:00 +13°C° 0 mm 1 mps 757 mmHg 80%
    23:00 +12°C° 0 mm 1 mps 757 mmHg 84%
    Show more